Location: Pasadena, ca
(34.1243°N, 118.1037°W)
Time: 12:37:54
(UTC-08:00)

N. Korean satellite - Pass Details

Date: 13 November 2017
Orbit: 460 x 514 km, 97.2° (Epoch: 24 November)

Event Time Altitude Azimuth Distance (km) Brightness Sun altitude
Rises 05:37:19 0° 35° (NE) 2,596 10.5 -9.9°
Reaches altitude 10° 05:40:19 10° 63° (ENE) 1,718 10.1 -9.3°
Maximum altitude 05:42:13 14° 94° (E) 1,511 10.5 -9.0°
Drops below altitude 10° 05:44:07 10° 125° (SE) 1,722 10.7 -8.6°
Sets 05:47:07 0° 152° (SSE) 2,609 11.0 -8.0°
